Regional Weather Roundup
Issued by NWS Newport/Morehead, NC

Current Version | Previous Version | Graphics & Text | Print | Product List | Glossary On
Versions: 1 2 3 4 5 6 7 8 9 10 11 12 13 14 15 16 17 18 19 20 21 22 23 24 25 26 27 28 29 30 31 32 33 34 35 36 37 38 39 40 41 42 43 44 45 46 47 48 49 50
000 ASUS42 KMHX 260825 RWRMHX WEATHER ROUNDUP FOR EASTERN NORTH CAROLINA NATIONAL WEATHER SERVICE NEWPORT/MOREHEAD CITY NC 400 AM EDT THU APR 26 2018 NOTE: "FAIR" INDICATES FEW OR NO CLOUDS BELOW 12,000 FEET WITH NO SIGNIFICANT WEATHER AND/OR OBSTRUCTIONS TO VISIBILITY NCZ015>017-031-032-045>047-102-103-260900- NORTH COAST CITY SKY/WX TMP DP RH WIND PRES REMARKS EDENTON FAIR 59 57 95 CALM 29.81R FOG ELIZABETH CITY CLOUDY 61 61 100 CALM 29.79R KITTY HAWK FAIR 60 60 100 CALM 29.77S FOG MANTEO FAIR 59 59 98 NW3 29.79R $$ NCZ045>047-081-094-103-104-260900- CENTRAL COAST CITY SKY/WX TMP DP RH WIND PRES REMARKS FRISCO FAIR 62 60 93 W5 29.79R $$ NCZ095-097-098-100-101-260900- SOUTHERN COAST CITY SKY/WX TMP DP RH WIND PRES REMARKS BEAUFORT FAIR 58 56 93 CALM 29.81R CEDAR ISLAND NOT AVBL JACKSONVILLE FAIR 57 56 96 CALM 29.81R PINEY ISLAND NOT AVBL WILMINGTON CLOUDY 60 57 89 CALM 29.82R $$ NCZ011>013-027>030-043-044-078>080-089-090>093-098-260900- COASTAL PLAIN CITY SKY/WX TMP DP RH WIND PRES REMARKS AHOSKIE FAIR 53 53 100 CALM 29.81R FOG CLINTON FAIR 54 54 100 CALM 29.83R ELIZABETHTOWN CLOUDY 59 54 84 MISG 29.83R GOLDSBORO FAIR 56 54 94 CALM 29.80R GREENVILLE FAIR 57 55 94 CALM 29.84R HAVELOCK NOT AVBL KENANSVILLE FAIR 50 50 100 CALM 29.83R KINSTON FAIR 57 55 95 CALM 29.83R NEW BERN FAIR 55 55 100 CALM 29.82R RICHLANDS FAIR 53 52 96 CALM 29.82R ROCKY MOUNT FAIR 55 53 93 W5 29.82R WASHINGTON FAIR 56 55 98 CALM 29.81R WHITEVILLE CLOUDY 61 59 92 CALM 29.83R $$ AMZ130-135-150-152-154-156-158-170-250-252-270-ANZ085-086-088-633-658-670-260900- MARINE OBSERVATIONS STATION/POSITION TIME TEMP WIND PRES WAVE SWELL AIR SEA DIR/SP/G HT/PER HT/PER (UTC) (F) (DEG/KT/KT) (MB) (FT/S) (FT/S) CHESAPEAKE LIGHT NOT AVBL 64 E VA BEACH 0750 54 51 270/ 10/ 14 1008.1 8/10 7/10 DUCK 0800 61 52 280/ 7/ 8 1008.0 2 E DUCK 0800 53 N/A 5/ 9 2/11 OREGON INLET 0800 280/ 5/ 7 1008.2 13E OREGON INLT 0748 54 N/A 6/10 7/10 HATTERAS CG 0800 63 67 290/ 11/ 12 1008.6 DIAMOND BUOY 0810 65 69 300/ 12/ 16 1009.0 CAPE LOOKOUT 0800 270/ 6/ 7 1009.7 BEAUFORT LAB 0800 62 64 290/ 2/ 4 1009.6 30 SE NEW RVR IN 0808 66 66 250/ 6/ 8 1007.2 30 SE NEW RVR IN 0800 66 N/A 5/10 2/11 27 SE WRIGHTSVLE 0808 65 66 250/ 6/ 10 1009.7 5 SE WRIGHTSVLE 0808 63 63 250/ 4/ 6 1008.4 225 S CAPE HAT 0810 71 73 220/ 12/ 17 1010.8 41 SE CHARLESTON 0810 69 290/ 10/ 12 1010.2 $$

USA.gov is the U.S. government's official web portal to all federal, state and local government web resources and services.